User: anonymous   Login
Location: Argonnex
(45.9500°N, 6.1333°E)
Time: 13:29:12
(UTC+00:00)
Language:

NOAA 16 DEB - Orbit

View from above orbital plane
View from above orbital plane
View from above satellite
View from above satellite

Ground track
Ground track

The orbit data is extracted from the following two-line orbital elements,

1 41230U 00055EK  24051.39768238  .00007321  00000-0  26469-2 0  9990
2 41230  99.0168 221.5813 0037289 105.2777 255.2532 14.33414071425592
Epoch (UTC): 20 February 2024 09:32:39
Eccentricity: 0.0037289
inclination: 99.0168°
perigee height: 753 km
apogee height: 807 km
right ascension of ascending node: 221.5813°
argument of perigee: 105.2777°
revolutions per day: 14.33414071
mean anomaly at epoch: 255.2532°
orbit number at epoch: 42559

The dashed part of the orbit path shows where the satellite is in the earth's shadow,  

DLR